This demonstration page uses our WeatherBlox Daily Observations layout. Learn more.

Left ArrowRight Arrow

Hourly Observations for May 17, 2017

Temp ( °F °C ) Dew Point ( °F °C ) Humidity (%) Winds ( mph kmh ) Pressure ( in mb ) Visibility ( mi km ) Precip ( " mm )
12:15 am 00:15 Cloudy with Strong Thunderstorms 58 14.3 56 13.3 94 94 NW 21 33 29.56 1001 3 5 0.26 6.60
12:35 am 00:35 Windy with Storms Likely 56 13.5 54 12 91 91 N 23 37 29.47 998 7 11 0.30 7.62
12:55 am 00:55 Mostly Cloudy with Drizzle 56 13.5 53 11.9 90 90 N 22 35 29.44 997 10 16 0.30 7.62
1:15 am 01:15 Partly Cloudy 56 13.5 53 11.7 89 89 N 16 26 29.44 997 10 16 N/A
1:35 am 01:35 Partly Cloudy 56 13.5 53 11.7 89 89 N 10 17 29.47 998 10 16 N/A
1:55 am 01:55 Clear 56 13.2 53 11.5 90 90 NNE 12 19 29.44 997 10 16 N/A
2:15 am 02:15 Clear 55 13 52 11.3 90 90 NE 6 9 29.44 997 10 16 N/A
2:35 am 02:35 Partly Cloudy 55 12.7 52 11.1 90 90 N N/A 29.44 997 10 16 N/A
2:55 am 02:55 Mostly Cloudy 55 12.5 52 11.1 91 91 NE 3 6 29.41 996 10 16 N/A
3:15 am 03:15 Partly Cloudy 54 12.1 52 10.9 92 92 N N/A 29.41 996 10 16 N/A
3:35 am 03:35 Mostly Cloudy 55 12.5 52 11.3 92 92 N N/A 29.41 996 10 16 N/A
3:55 am 03:55 Cloudy 55 12.6 53 11.5 93 93 N N/A 29.41 996 10 16 N/A
4:15 am 04:15 Cloudy 55 12.7 53 11.6 93 93 W 5 7 29.41 996 10 16 N/A
4:35 am 04:35 Cloudy 55 12.8 53 11.7 93 93 WNW 8 13 29.41 996 10 16 N/A
4:55 am 04:55 Cloudy with Light Rain 55 12.5 53 11.5 94 94 WNW 7 11 29.44 997 10 16 0.02 0.51
5:15 am 05:15 Cloudy with Light Rain 55 12.6 53 11.5 93 93 NE 6 9 29.44 997 10 16 0.01 0.25
5:35 am 05:35 Cloudy with Nearby Thunderstorms 55 12.6 53 11.7 94 94 NE 10 17 29.41 996 10 16 0.01 0.25
5:55 am 05:55 Partly Cloudy 55 12.5 53 11.5 94 94 NNE 10 17 29.41 996 10 16 0.01 0.25
6:15 am 06:15 Clear 54 12.3 53 11.4 94 94 N 9 15 29.38 995 10 16 N/A
6:35 am 06:35 Sunny 54 12.2 52 11.3 94 94 N 6 9 29.38 995 10 16 N/A
6:55 am 06:55 Sunny 54 12.3 53 11.5 95 95 N 6 9 29.38 995 10 16 N/A
7:15 am 07:15 Mostly Cloudy 54 12.3 53 11.5 95 95 NNW 7 11 29.38 995 10 16 N/A
7:35 am 07:35 Mostly Cloudy 55 12.5 53 11.5 94 94 NNW 8 13 29.38 995 10 16 N/A
7:55 am 07:55 Mostly Cloudy 55 12.5 53 11.6 94 94 NNE 12 19 29.35 994 10 16 N/A
8:15 am 08:15 Cloudy 55 12.5 53 11.6 94 94 ENE 12 19 29.35 994 10 16 N/A
8:35 am 08:35 Cloudy with Thunderstorms 55 12.7 53 11.7 94 94 ENE 9 15 29.38 995 10 16 N/A
8:55 am 08:55 Cloudy with Nearby Thunderstorms 55 13 53 11.7 92 92 NNW 3 6 29.38 995 10 16 0.01 0.25
9:15 am 09:15 Cloudy with Heavy Rain 55 12.8 53 11.8 94 94 N N/A 29.38 995 3 5 0.08 2.03
9:35 am 09:35 Cloudy with Rain 55 12.8 54 12 95 95 WSW 6 9 29.38 995 5 8 0.14 3.56
9:55 am 09:55 Cloudy with Rain 55 13 54 12.1 94 94 WNW 3 6 29.38 995 5 8 0.20 5.08
10:15 am 10:15 Cloudy with Heavy Rain 55 13 54 12.1 94 94 N N/A 29.38 995 3 4 0.10 2.54
10:35 am 10:35 Cloudy with Heavy Rain 55 13 54 12.1 94 94 S 3 6 29.38 995 2 2 0.27 6.86
10:55 am 10:55 Cloudy with Heavy Rain 55 12.8 54 12 95 95 N N/A 29.38 995 1 2 0.43 10.92
11:15 am 11:15 Cloudy with Heavy Rain 55 13 54 12.1 94 94 ESE 7 11 29.38 995 4 6 0.08 2.03
11:35 am 11:35 Cloudy with Rain 55 12.7 54 12 96 96 ESE 7 11 29.38 995 5 8 0.16 4.06
11:55 am 11:55 Cloudy with Rain 55 12.5 52 11.2 92 92 SSE 10 17 29.38 995 5 8 0.23 5.84
12:15 pm 12:15 Cloudy with Rain 54 12.2 52 11.2 94 94 SE 10 17 29.38 995 4 6 0.08 2.03
12:35 pm 12:35 Cloudy 55 12.5 53 11.7 95 95 SE 8 13 29.38 995 10 16 0.10 2.54
12:55 pm 12:55 Cloudy with Light Rain 55 12.8 53 11.5 92 92 S 6 9 29.38 995 10 16 0.10 2.54
1:15 pm 13:15 Cloudy with Light Rain 56 13.5 53 11.7 89 89 SSW 10 17 29.38 995 10 16 N/A
1:35 pm 13:35 Mostly Cloudy 59 14.9 54 12.4 85 85 SW 13 20 29.35 994 10 16 N/A
1:55 pm 13:55 Mostly Cloudy 61 16 56 13.2 84 84 WSW 14 22 29.35 994 10 16 N/A
2:15 pm 14:15 Cloudy 62 16.6 56 13.4 82 82 W 14 22 29.35 994 10 16 N/A
2:35 pm 14:35 Cloudy 63 17.4 55 12.5 73 73 W 14 22 29.32 993 10 16 N/A
2:55 pm 14:55 Cloudy 62 16.8 56 13.5 81 81 WNW 17 28 29.38 995 10 16 N/A
3:15 pm 15:15 Cloudy 62 16.5 54 12.2 76 76 WNW 17 28 29.38 995 10 16 N/A
3:35 pm 15:35 Cloudy 62 16.6 54 12 74 74 WNW 20 31 29.38 995 10 16 N/A
3:55 pm 15:55 Mostly Cloudy 63 17.1 55 12.5 75 75 NW 23 37 29.41 996 10 16 N/A
4:15 pm 16:15 Cloudy 62 16.5 53 11.8 74 74 NW 20 31 29.41 996 10 16 N/A
4:35 pm 16:35 Cloudy 61 16.3 52 11.2 72 72 NW 21 33 29.41 996 10 16 N/A
4:55 pm 16:55 Cloudy 61 16 53 11.6 75 75 NW 20 31 29.44 997 10 16 N/A
5:15 pm 17:15 Cloudy 63 17 53 11.7 71 71 NW 17 28 29.44 997 10 16 N/A
5:35 pm 17:35 Mostly Cloudy 61 16.2 51 10.5 69 69 NW 20 31 29.47 998 10 16 N/A
5:55 pm 17:55 Cloudy 61 16 51 10.8 71 71 NW 15 24 29.47 998 10 16 N/A
6:15 pm 18:15 Mostly Cloudy 62 16.6 52 10.9 69 69 NW 20 31 29.50 999 10 16 N/A
6:35 pm 18:35 Cloudy 60 15.5 51 10.6 73 73 NNW 14 22 29.50 999 10 16 N/A
6:55 pm 18:55 Mostly Cloudy 60 15.8 51 10.3 70 70 NW 15 24 29.50 999 10 16 N/A
7:15 pm 19:15 Partly Cloudy 60 15.7 50 10 69 69 NW 14 22 29.53 1000 10 16 N/A
7:35 pm 19:35 Partly Cloudy 60 15.5 50 10.1 70 70 NW 14 22 29.56 1001 10 16 N/A
7:55 pm 19:55 Sunny 59 15 49 9.5 70 70 NNW 15 24 29.59 1002 10 16 N/A
8:15 pm 20:15 Partly Cloudy 58 14.7 49 9.6 72 72 NW 9 15 29.62 1003 10 16 N/A
8:35 pm 20:35 Partly Cloudy 58 14.5 49 9.3 71 71 NNW 13 20 29.62 1003 10 16 N/A
8:55 pm 20:55 Mostly Cloudy 57 14 50 9.8 76 76 NW 9 15 29.65 1004 10 16 N/A
9:15 pm 21:15 Partly Cloudy 56 13.6 49 9.6 77 77 NNW 8 13 29.65 1004 10 16 N/A
9:35 pm 21:35 Partly Cloudy 55 13 49 9.6 80 80 NW 7 11 29.71 1006 10 16 N/A
9:55 pm 21:55 Partly Cloudy 55 12.9 50 10 83 83 NNW 9 15 29.71 1006 10 16 N/A
10:15 pm 22:15 Partly Cloudy 55 12.6 49 9.7 83 83 NNW 7 11 29.74 1007 10 16 N/A
10:35 pm 22:35 Mostly Cloudy 55 12.5 49 9.7 83 83 NNW 7 11 29.77 1008 10 16 N/A
10:55 pm 22:55 Cloudy 55 12.7 50 9.9 83 83 N 13 20 29.74 1007 10 16 N/A
11:15 pm 23:15 Cloudy 54 12.4 50 10 85 85 N 18 30 29.74 1007 10 16 N/A
11:35 pm 23:35 Cloudy 53 11.9 49 9.2 84 84 N 17 28 29.74 1007 10 16 N/A
11:55 pm 23:55 Mostly Cloudy 53 11.6 48 9.1 85 85 N 17 28 29.74 1007 10 16 N/A

Powered by AerisWeather